Location: Lake Almanor
(40.2485°N, 121.1442°W)
Time: 16:13:47
(UTC-08:00)

STARLINK-1074 - Pass Details

Date: 01 February 2020
Orbit: 348 x 351 km, 53.0° (Epoch: 17 February)

Event Time Altitude Azimuth Distance (km) Brightness Sun altitude
Rises 18:31:51 0° 308° (NW) 2,171 7.3 -13.4°
Reaches altitude 10° 18:33:53 10° 306° (NW) 1,325 6.2 -13.8°
Maximum altitude 18:36:49 74° 222° (SW) 372 2.8 -14.4°
Enters shadow 18:38:48 19° 138° (SE) 930 4.5 -14.7°
